Regional Weather Roundup
Issued by NWS

Home | Current Version | Previous Version | Graphics & Text | Print | Product List | Glossary On
Versions: 1 2 3 4 5 6 7 8 9 10 11 12 13 14 15 16 17 18 19 20 21 22 23 24 25 26 27 28 29 30 31 32 33 34 35 36 37 38 39 40 41 42 43 44 45 46 47 48 49 50
000
ASUS43 KLMK 291302
RWRKY
KENTUCKY REGIONAL WEATHER ROUNDUP
NATIONAL WEATHER SERVICE LOUISVILLE KY
900 AM EDT WED JUL 29 2015

NOTE "FAIR" INDICATES FEW OR NO CLOUDS BELOW 12,000 FEET
WITH NO SIGNIFICANT WEATHER AND/OR OBSTRUCTIONS TO VISIBILITY.

KYZ001>023-026-027-061>063-070>075-291400-
WESTERN AND SOUTH CENTRAL KENTUCKY

CITY           SKY/WX    TMP DP  RH WIND       PRES   REMARKS
PADUCAH        SUNNY     80  73  79 SW6       30.00S
HENDERSON      CLOUDY    75  72  88 NE5       30.01R
OWENSBORO      MOSUNNY   78  75  90 CALM      30.02R
HOPKINSVILLE   MOSUNNY   77  73  87 VRB5      30.03R
BOWLING GREEN  PTSUNNY   78  72  81 SW3       30.03S
GLASGOW        NOT AVBL
$$

KYZ024-025-028>034-038-045-046-053-291400-
NORTH CENTRAL KENTUCKY

CITY           SKY/WX    TMP DP  RH WIND       PRES   REMARKS
LOUISVILLE/SDF PTSUNNY   81  73  76 W3        30.00R
LOUISVILLE/LOU MOSUNNY   80  73  79 W5        30.01R
FORT KNOX      CLOUDY    76  73  90 W6        30.01R
$$

KYZ035>037-039>044-047>052-055>060-089>105-291400-
NORTHEAST KENTUCKY

CITY           SKY/WX    TMP DP  RH WIND       PRES   REMARKS
LEXINGTON      FOG       74  73  97 SW5       30.03R VSB 1
COVINGTON      PTSUNNY   81  75  82 CALM      30.01R
FRANKFORT      SUNNY     75  72  90 SW3       30.01R FOG
$$

KYZ054-064>069-076>088-106>120-291400-
SOUTHEAST KENTUCKY

CITY           SKY/WX    TMP DP  RH WIND       PRES   REMARKS
JACKSON        CLOUDY    72  71  97 CALM      30.06R
LONDON         CLOUDY    73  70  90 VRB3      30.06R FOG
SOMERSET       NOT AVBL
MIDDLESBORO    NOT AVBL
MONTICELLO     MOSUNNY   76  75  96 CALM      30.08R
$$



USA.gov is the U.S. government's official web portal to all federal, state and local government web resources and services.